Terminal Aerodrome Forecast
Issued by NWS

Home | Current Version | Previous Version | Text Only | Print | Product List | Glossary On
Versions: 1 2 3 4 5 6 7 8 9 10 11 12 13 14 15 16 17 18 19 20
000
FTUS44 KLZK 011100
TAFHRO
TAF
KHRO 011120Z 0112/0212 14004KT 3SM -FZRAPL BR OVC003
     FM011400 VRB05KT 5SM BR OVC007
     FM020600 VRB04KT 4SM BR BKN004 OVC007=

USA.gov is the U.S. government's official web portal to all federal, state and local government web resources and services.